Time,TemperatureF,DewpointF,PressureIn,WindDirection,WindDirectionDegrees,WindSpeedMPH,WindSpeedGustMPH,Humidity,HourlyPrecipIn,Conditions,Clouds,dailyrainin,SoftwareType,DateUTC
2013-03-15 00:11:00,24.4,17.0,29.86,NNW,333,2.0,7.0,72,0.00,,,0.00,weatherlink.com 1.10,2013-03-15 04:11:00,
2013-03-15 00:26:00,24.4,17.0,29.86,NNW,347,3.0,7.0,72,0.00,,,0.00,weatherlink.com 1.10,2013-03-15 04:26:00,
2013-03-15 00:41:00,23.5,17.0,29.87,NW,315,1.0,10.0,75,0.00,,,0.00,weatherlink.com 1.10,2013-03-15 04:41:00,
2013-03-15 00:56:00,22.8,18.0,29.87,NNW,330,3.0,6.0,80,0.00,,,0.00,weatherlink.com 1.10,2013-03-15 04:56:00,
2013-03-15 01:11:00,22.4,17.0,29.87,NNW,347,2.0,4.0,80,0.00,,,0.00,weatherlink.com 1.10,2013-03-15 05:11:00,
2013-03-15 01:26:00,22.5,17.0,29.87,NNW,338,3.0,3.0,79,0.00,,,0.00,weatherlink.com 1.10,2013-03-15 05:26:00,
2013-03-15 01:41:00,22.9,16.0,29.87,NW,310,3.0,6.0,75,0.00,,,0.00,weatherlink.com 1.10,2013-03-15 05:41:00,
2013-03-15 01:56:00,23.4,16.0,29.87,NNW,335,2.0,7.0,72,0.00,,,0.00,weatherlink.com 1.10,2013-03-15 05:56:00,
2013-03-15 02:11:00,23.4,15.0,29.87,WNW,301,3.0,10.0,69,0.00,,,0.00,weatherlink.com 1.10,2013-03-15 06:11:00,
2013-03-15 02:26:00,23.7,14.0,29.87,NNW,335,4.0,14.0,66,0.00,,,0.00,weatherlink.com 1.10,2013-03-15 06:26:00,
2013-03-15 02:41:00,23.8,14.0,29.88,NE,39,7.0,16.0,65,0.00,,,0.00,weatherlink.com 1.10,2013-03-15 06:41:00,
2013-03-15 02:56:00,23.8,14.0,29.88,NNW,348,3.0,10.0,65,0.00,,,0.00,weatherlink.com 1.10,2013-03-15 06:56:00,
2013-03-15 03:11:00,23.7,14.0,29.88,NNW,335,5.0,11.0,66,0.00,,,0.00,weatherlink.com 1.10,2013-03-15 07:11:00,
2013-03-15 03:26:00,23.3,13.0,29.87,NW,307,1.0,10.0,66,0.00,,,0.00,weatherlink.com 1.10,2013-03-15 07:26:00,
2013-03-15 03:41:00,23.1,13.0,29.87,NNW,339,5.0,10.0,66,0.00,,,0.00,weatherlink.com 1.10,2013-03-15 07:41:00,
2013-03-15 03:57:00,23.2,13.0,29.87,WNW,302,2.0,9.0,64,0.00,,,0.00,weatherlink.com 1.10,2013-03-15 07:57:00,
2013-03-15 04:12:00,23.2,12.0,29.86,WNW,290,2.0,14.0,63,0.00,,,0.00,weatherlink.com 1.10,2013-03-15 08:12:00,
2013-03-15 04:27:00,23.0,12.0,29.86,WNW,293,5.0,12.0,63,0.00,,,0.00,weatherlink.com 1.10,2013-03-15 08:27:00,
2013-03-15 04:42:00,22.9,12.0,29.87,SW,224,3.0,12.0,62,0.00,,,0.00,weatherlink.com 1.10,2013-03-15 08:42:00,
2013-03-15 04:57:00,22.8,11.0,29.87,NNW,344,2.0,13.0,60,0.00,,,0.00,weatherlink.com 1.10,2013-03-15 08:57:00,
2013-03-15 05:12:00,22.7,11.0,29.87,WNW,297,3.0,10.0,61,0.00,,,0.00,weatherlink.com 1.10,2013-03-15 09:12:00,
2013-03-15 05:27:00,22.4,10.0,29.87,WNW,298,1.0,9.0,60,0.00,,,0.00,weatherlink.com 1.10,2013-03-15 09:27:00,
2013-03-15 05:42:00,22.3,10.0,29.88,NW,306,3.0,12.0,59,0.00,,,0.00,weatherlink.com 1.10,2013-03-15 09:42:00,
2013-03-15 05:57:00,22.3,9.0,29.88,NNW,335,8.0,14.0,58,0.00,,,0.00,weatherlink.com 1.10,2013-03-15 09:57:00,
2013-03-15 06:12:00,22.4,9.0,29.88,NE,44,6.0,11.0,56,0.00,,,0.00,weatherlink.com 1.10,2013-03-15 10:12:00,
2013-03-15 06:27:00,22.6,9.0,29.89,NNE,14,2.0,14.0,55,0.00,,,0.00,weatherlink.com 1.10,2013-03-15 10:27:00,
2013-03-15 06:42:00,22.7,8.0,29.89,WNW,288,6.0,9.0,54,0.00,,,0.00,weatherlink.com 1.10,2013-03-15 10:42:00,
2013-03-15 06:57:00,22.6,8.0,29.88,West,278,0.0,10.0,54,0.00,,,0.00,weatherlink.com 1.10,2013-03-15 10:57:00,
2013-03-15 07:12:00,22.4,8.0,29.88,NW,305,3.0,11.0,54,0.00,,,0.00,weatherlink.com 1.10,2013-03-15 11:12:00,
2013-03-15 07:27:00,23.0,8.0,29.89,WNW,283,0.0,6.0,53,0.00,,,0.00,weatherlink.com 1.10,2013-03-15 11:27:00,
2013-03-15 07:42:00,23.1,8.0,29.89,NNE,18,4.0,9.0,52,0.00,,,0.00,weatherlink.com 1.10,2013-03-15 11:42:00,
2013-03-15 07:57:00,24.2,8.0,29.88,NNW,330,2.0,6.0,51,0.00,,,0.00,weatherlink.com 1.10,2013-03-15 11:57:00,
2013-03-15 08:12:00,24.9,8.0,29.89,West,263,2.0,8.0,49,0.00,,,0.00,weatherlink.com 1.10,2013-03-15 12:12:00,
2013-03-15 08:27:00,24.6,7.0,29.89,WNW,298,3.0,14.0,47,0.00,,,0.00,weatherlink.com 1.10,2013-03-15 12:27:00,
2013-03-15 08:42:00,25.4,8.0,29.88,WNW,300,2.0,6.0,47,0.00,,,0.00,weatherlink.com 1.10,2013-03-15 12:42:00,
2013-03-15 08:57:00,25.3,7.0,29.88,WNW,293,0.0,8.0,46,0.00,,,0.00,weatherlink.com 1.10,2013-03-15 12:57:00,
2013-03-15 09:12:00,26.2,8.0,29.89,WSW,250,1.0,4.0,46,0.00,,,0.00,weatherlink.com 1.10,2013-03-15 13:12:00,
2013-03-15 09:27:00,26.4,7.0,29.88,SW,236,5.0,10.0,44,0.00,,,0.00,weatherlink.com 1.10,2013-03-15 13:27:00,
2013-03-15 09:42:00,27.4,7.0,29.88,WNW,291,2.0,8.0,43,0.00,,,0.00,weatherlink.com 1.10,2013-03-15 13:42:00,
2013-03-15 09:57:00,28.2,8.0,29.88,West,266,0.0,9.0,43,0.00,,,0.00,weatherlink.com 1.10,2013-03-15 13:57:00,
2013-03-15 10:12:00,28.7,8.0,29.87,WSW,252,2.0,10.0,41,0.00,,,0.00,weatherlink.com 1.10,2013-03-15 14:12:00,
2013-03-15 10:27:00,29.1,6.0,29.86,WSW,239,2.0,11.0,37,0.00,,,0.00,weatherlink.com 1.10,2013-03-15 14:27:00,
2013-03-15 10:42:00,30.2,6.0,29.86,WNW,294,1.0,12.0,36,0.00,,,0.00,weatherlink.com 1.10,2013-03-15 14:42:00,
2013-03-15 10:57:00,30.8,6.0,29.85,West,263,1.0,13.0,35,0.00,,,0.00,weatherlink.com 1.10,2013-03-15 14:57:00,
2013-03-15 11:12:00,30.4,6.0,29.85,West,263,0.0,9.0,36,0.00,,,0.00,weatherlink.com 1.10,2013-03-15 15:12:00,
2013-03-15 11:27:00,30.6,8.0,29.84,WSW,242,8.0,12.0,38,0.00,,,0.00,weatherlink.com 1.10,2013-03-15 15:27:00,
2013-03-15 11:43:00,32.3,8.0,29.83,WSW,243,6.0,13.0,36,0.00,,,0.00,weatherlink.com 1.10,2013-03-15 15:43:00,
2013-03-15 11:58:00,33.0,9.0,29.82,SW,229,7.0,13.0,36,0.00,,,0.00,weatherlink.com 1.10,2013-03-15 15:58:00,
2013-03-15 12:13:00,33.5,11.0,29.82,WSW,243,9.0,16.0,39,0.00,,,0.00,weatherlink.com 1.10,2013-03-15 16:13:00,
2013-03-15 12:28:00,33.5,11.0,29.81,WSW,239,4.0,10.0,40,0.00,,,0.00,weatherlink.com 1.10,2013-03-15 16:28:00,
2013-03-15 12:43:00,34.4,12.0,29.79,West,271,1.0,10.0,40,0.00,,,0.00,weatherlink.com 1.10,2013-03-15 16:43:00,
2013-03-15 12:58:00,35.4,13.0,29.78,South,170,6.0,17.0,40,0.00,,,0.00,weatherlink.com 1.10,2013-03-15 16:58:00,
2013-03-15 13:13:00,36.8,14.0,29.76,West,266,5.0,10.0,39,0.00,,,0.00,weatherlink.com 1.10,2013-03-15 17:13:00,
2013-03-15 13:28:00,38.1,14.0,29.75,WSW,238,6.0,10.0,38,0.00,,,0.00,weatherlink.com 1.10,2013-03-15 17:28:00,
2013-03-15 13:43:00,37.6,13.0,29.74,SSW,203,6.0,13.0,36,0.00,,,0.00,weatherlink.com 1.10,2013-03-15 17:43:00,
2013-03-15 13:58:00,38.4,12.0,29.73,SSW,208,7.0,11.0,34,0.00,,,0.00,weatherlink.com 1.10,2013-03-15 17:58:00,
2013-03-15 14:13:00,38.3,13.0,29.72,WNW,283,1.0,14.0,36,0.00,,,0.00,weatherlink.com 1.10,2013-03-15 18:13:00,
2013-03-15 14:28:00,39.1,12.0,29.70,SSE,153,2.0,14.0,33,0.00,,,0.00,weatherlink.com 1.10,2013-03-15 18:28:00,
2013-03-15 14:43:00,39.9,13.0,29.70,South,187,8.0,17.0,34,0.00,,,0.00,weatherlink.com 1.10,2013-03-15 18:43:00,
2013-03-15 14:58:00,39.8,14.0,29.69,SSW,212,4.0,15.0,35,0.00,,,0.00,weatherlink.com 1.10,2013-03-15 18:58:00,
2013-03-15 15:13:00,40.2,15.0,29.69,SW,232,9.0,16.0,36,0.00,,,0.00,weatherlink.com 1.10,2013-03-15 19:13:00,
2013-03-15 15:28:00,39.9,15.0,29.68,SSW,205,14.0,15.0,37,0.00,,,0.00,weatherlink.com 1.10,2013-03-15 19:28:00,
2013-03-15 15:43:00,39.3,17.0,29.67,WSW,243,9.0,18.0,40,0.00,,,0.00,weatherlink.com 1.10,2013-03-15 19:43:00,
2013-03-15 15:58:00,39.1,19.0,29.67,SW,217,10.0,17.0,45,0.00,,,0.00,weatherlink.com 1.10,2013-03-15 19:58:00,
2013-03-15 16:13:00,38.3,21.0,29.68,SW,215,5.0,22.0,50,0.00,,,0.00,weatherlink.com 1.10,2013-03-15 20:13:00,
2013-03-15 16:28:00,38.0,22.0,29.68,SSW,208,3.0,13.0,53,0.00,,,0.00,weatherlink.com 1.10,2013-03-15 20:28:00,
2013-03-15 16:43:00,37.5,23.0,29.67,SSW,204,5.0,18.0,56,0.00,,,0.00,weatherlink.com 1.10,2013-03-15 20:43:00,
2013-03-15 16:58:00,38.4,24.0,29.67,SW,226,8.0,15.0,57,0.00,,,0.00,weatherlink.com 1.10,2013-03-15 20:58:00,
2013-03-15 17:13:00,38.4,25.0,29.66,SSW,198,9.0,17.0,58,0.00,,,0.00,weatherlink.com 1.10,2013-03-15 21:13:00,
2013-03-15 17:28:00,37.9,25.0,29.67,SW,228,10.0,17.0,59,0.00,,,0.00,weatherlink.com 1.10,2013-03-15 21:28:00,
2013-03-15 17:43:00,38.1,25.0,29.66,WSW,252,9.0,13.0,60,0.00,,,0.00,weatherlink.com 1.10,2013-03-15 21:43:00,
2013-03-15 17:58:00,38.0,25.0,29.66,West,266,4.0,19.0,61,0.00,,,0.00,weatherlink.com 1.10,2013-03-15 21:58:00,
2013-03-15 18:13:00,37.3,26.0,29.66,West,280,3.0,15.0,64,0.00,,,0.00,weatherlink.com 1.10,2013-03-15 22:13:00,
2013-03-15 18:28:00,36.9,26.0,29.66,SSW,207,5.0,19.0,65,0.00,,,0.00,weatherlink.com 1.10,2013-03-15 22:28:00,
2013-03-15 18:43:00,36.3,27.0,29.66,West,260,9.0,13.0,68,0.00,,,0.00,weatherlink.com 1.10,2013-03-15 22:43:00,
2013-03-15 18:58:00,35.7,27.0,29.67,SSW,212,6.0,18.0,70,0.00,,,0.00,weatherlink.com 1.10,2013-03-15 22:58:00,
2013-03-15 19:13:00,35.4,27.0,29.67,WSW,239,5.0,12.0,71,0.00,,,0.00,weatherlink.com 1.10,2013-03-15 23:13:00,
2013-03-15 19:28:00,35.0,27.0,29.67,SW,231,1.0,11.0,72,0.00,,,0.00,weatherlink.com 1.10,2013-03-15 23:28:00,
2013-03-15 19:44:00,34.9,27.0,29.68,South,181,3.0,8.0,74,0.00,,,0.00,weatherlink.com 1.10,2013-03-15 23:44:00,
2013-03-15 19:59:00,34.7,28.0,29.68,SSW,212,4.0,12.0,75,0.00,,,0.00,weatherlink.com 1.10,2013-03-15 23:59:00,
2013-03-15 20:14:00,34.2,27.0,29.69,SW,226,3.0,7.0,76,0.00,,,0.00,weatherlink.com 1.10,2013-03-16 00:14:00,
2013-03-15 20:29:00,33.8,28.0,29.69,SW,218,2.0,7.0,78,0.00,,,0.00,weatherlink.com 1.10,2013-03-16 00:29:00,
2013-03-15 20:44:00,33.5,28.0,29.68,WSW,237,4.0,7.0,79,0.00,,,0.00,weatherlink.com 1.10,2013-03-16 00:44:00,
2013-03-15 20:59:00,33.0,27.0,29.69,South,179,2.0,6.0,80,0.00,,,0.00,weatherlink.com 1.10,2013-03-16 00:59:00,
2013-03-15 21:14:00,32.5,28.0,29.68,South,183,2.0,6.0,82,0.00,,,0.00,weatherlink.com 1.10,2013-03-16 01:14:00,
2013-03-15 21:29:00,32.3,28.0,29.68,SW,229,1.0,4.0,83,0.00,,,0.00,weatherlink.com 1.10,2013-03-16 01:29:00,
2013-03-15 21:44:00,32.6,28.0,29.69,SW,233,4.0,7.0,82,0.00,,,0.00,weatherlink.com 1.10,2013-03-16 01:44:00,
2013-03-15 21:59:00,32.7,28.0,29.69,SSW,211,3.0,5.0,82,0.00,,,0.00,weatherlink.com 1.10,2013-03-16 01:59:00,
2013-03-15 22:14:00,33.0,28.0,29.70,SW,215,1.0,5.0,82,0.00,,,0.00,weatherlink.com 1.10,2013-03-16 02:14:00,
2013-03-15 22:29:00,32.5,29.0,29.71,WNW,290,1.0,7.0,86,0.00,,,0.00,weatherlink.com 1.10,2013-03-16 02:29:00,
2013-03-15 22:44:00,32.0,29.0,29.71,SSW,212,2.0,6.0,88,0.00,,,0.00,weatherlink.com 1.10,2013-03-16 02:44:00,
2013-03-15 22:59:00,32.3,28.0,29.71,WSW,237,4.0,8.0,85,0.00,,,0.00,weatherlink.com 1.10,2013-03-16 02:59:00,
2013-03-15 23:14:00,32.5,27.0,29.71,WSW,243,0.0,6.0,81,0.00,,,0.00,weatherlink.com 1.10,2013-03-16 03:14:00,
2013-03-15 23:29:00,32.5,27.0,29.71,SW,226,2.0,7.0,79,0.00,,,0.00,weatherlink.com 1.10,2013-03-16 03:29:00,
2013-03-15 23:44:00,32.5,26.0,29.71,SW,229,2.0,9.0,77,0.00,,,0.00,weatherlink.com 1.10,2013-03-16 03:44:00,
2013-03-15 23:59:00,32.7,25.0,29.72,WNW,301,3.0,8.0,72,0.00,,,0.00,weatherlink.com 1.10,2013-03-16 03:59:00,